UmKA 1 (RS40S)
1 57172U 23091G   26212.82813933  .00005571  00000-0  25185-3 0  9999
2 57172  97.5018 271.3605 0011388 330.2606  29.7981 15.21289746170794
CubeBel-2 (EU11S)
1 57175U 23091K   26212.86225119  .00012736  00000-0  43786-3 0  9997
2 57175  97.5020 276.5039 0008013 323.2242  36.8448 15.30200280171139
RS-38S
1 57189U 23091Z   26212.62231747  .00016233  00000-0  44494-3 0  9993
2 57189  97.5065 283.0344 0005324 265.6683  94.3953 15.37365615171518
SONATE-2
1 59112U 24043Q   26212.38741890  .00040737  00000-0  46444-3 0  9990
2 59112  97.5572   5.6190 0005761  48.9233 311.2522 15.62120916134786
GRBBeta
1 60237U 24128C   26212.61645430  .00003774  00000-0  26234-3 0  9998
2 60237  61.9894  60.3534 0034731 144.3047 216.0378 15.06917744112969
Curium One
1 60242U 24128H   26212.65424301  .00008148  00000-0  46367-3 0  9999
2 60242  61.9782  48.2103 0034090 140.0580 220.3034 15.13097489113186
ROBUSTA-3A
1 60243U 24128J   26212.64463862  .00007931  00000-0  46219-3 0  9999
2 60243  61.9861  50.9661 0035829 137.1928 223.1968 15.12217924113148
CatSat
1 60246U 24125J   26212.55062342  .00074676  00000-0  76671-3 0  9992
2 60246  97.2033  65.8030 0017284  22.9247 337.2781 15.64498680114316
HYPERVIEW-1G (RS66S)
1 61772U 24199AP  26212.61115593  .00212392  19421-4  55462-3 0  9997
2 61772  97.2748  95.0769 0006820 133.7973 226.3868 15.94909695141702
AO-123
1 61781U 24199AY  26212.59565002  .00008040  00000-0  22882-3 0  9990
2 61781  97.2934  80.8700 0014745 143.1677 217.0583 15.36277585140743
JINJUSat 1B
1 63210U 25052A   26212.62856757  .00016305  00000-0  48436-3 0  9998
2 63210  97.3944 109.4722 0001013 313.2694  46.8465 15.34852205 76919
NUSHSAT 1
1 63211U 25052B   26212.66095298  .00022347  00000-0  60523-3 0  9992
2 63211  97.3916 110.2345 0000778 354.6660   5.4576 15.37679791 76979
TEVEL2-4
1 63213U 25052D   26212.63028595  .00019780  00000-0  56336-3 0  9991
2 63213  97.3839 109.1291 0001437  19.6602 340.4697 15.36135798 76934
TEVEL2-5
1 63214U 25052E   26212.65610558  .00018929  00000-0  54270-3 0  9999
2 63214  97.3838 109.0896 0001525  22.6390 337.4921 15.35937948 76932
TEVEL2-6
1 63215U 25052F   26212.60430910  .00019248  00000-0  55244-3 0  9994
2 63215  97.3842 109.0220 0001625  25.4413 334.6911 15.35900614 76924
TEVEL2-1
1 63217U 25052H   26212.64955512  .00018349  00000-0  53670-3 0  9992
2 63217  97.3813 108.6371 0002317  24.8595 335.2760 15.35314287 76912
TEVEL2-3
1 63218U 25052J   26212.64242738  .00018999  00000-0  55439-3 0  9998
2 63218  97.3820 108.6578 0002281  30.9743 329.1635 15.35381477 76911
TEVEL2-2
1 63219U 25052K   26212.64956018  .00018467  00000-0  53991-3 0  9993
2 63219  97.3816 108.6401 0002393  24.1700 335.9656 15.35326668 76913
TEVEL2-9
1 63237U 25052AD  26212.62076413  .00016678  00000-0  52109-3 0  9995
2 63237  97.3878 107.8866 0005618   8.0395 352.0937 15.33230687 76837
TEVEL2-7
1 63238U 25052AE  26212.21373690  .00014776  00000-0  46708-3 0  9993
2 63238  97.3880 107.3764 0005796   8.9062 351.2282 15.32884839 76769
TEVEL2-8
1 63239U 25052AF  26212.61407578  .00016290  00000-0  51454-3 0  9998
2 63239  97.3879 107.7520 0005744   8.1289 352.0045 15.32886801 76822
SPIRONE
1 66657U 25274H   26212.73789610  .00002207  00000-0  21378-3 0  9999
2 66657  97.7465 141.3955 0010887 220.2428 139.7987 14.93711058 36879
K-HERO
1 66660U 25274L   26212.79722589  .00001726  00000-0  16662-3 0  9996
2 66660  97.7476 141.6477 0012637 225.9408 134.0772 14.94114847 36898
SNUGLITE-III DURI
1 66661U 25274M   26212.78407297  .00001319  00000-0  12853-3 0  9998
2 66661  97.7474 141.6556 0013238 227.2487 132.7620 14.94138148 36892
SAKHACUBE-CHOLBON
1 67290U 25313AU  26212.18105659  .00008520  00000-0  33741-3 0  9992
2 67290  97.3917 286.6831 0009031 190.0459 170.0600 15.25632546 32689
RS95S (QMR-KWT-2)
1 67291U 25313AV  26212.45168577  .00012533  00000-0  46943-3 0  9998
2 67291  97.3912 287.2286 0008838 186.5946 173.5179 15.27381397 32744
Ten-Koh2
1 68261U 25241B   26212.86509079  .00006856  00000-0  28948-3 0  9993
2 68261  51.6535 106.9165 0005172 286.4459  73.5950 15.24367083 21721
JACK-002
1 68417U 26067B   26212.87132920  .00006115  00000-0  28782-3 0  9995
2 68417  97.4598 170.9327 0003998 106.2094 253.9581 15.19905937 18731
DISCO 2
1 68431U 26067R   26212.83425781  .00008559  00000-0  40379-3 0  9997
2 68431  97.4632 170.8872 0002535 144.6830 215.4573 15.19705506 18723
HADES-SA (SpinnyONE)
1 68446U 26067AG  26212.86151749  .00017533  00000-0  80322-3 0  9990
2 68446  97.4427 170.5405 0003840 285.6903  74.3908 15.20535591 18717
PARUS-6U1
1 68456U 26067AS  26212.88863102  .00005666  00000-0  28227-3 0  9996
2 68456  97.4585 170.5854 0003536 268.7139  91.3690 15.17956304 18718
SAL-E
1 68458U 26067AU  26212.87453907  .00007342  00000-0  36044-3 0  9994
2 68458  97.4510 170.4849 0003545 282.3795  77.7042 15.18367083 18711
FSI-SAT 2
1 68792U 26088A   26212.83934603  .00004162  00000-0  28037-3 0  9991
2 68792  97.5120   1.0008 0013280 318.7179  41.3044 15.07152843 15016
OrigamiSat 2
1 68795U 26088D   26212.84962686  .00011033  00000-0  68733-3 0  9999
2 68795  97.5120   1.2960 0013570 285.4193  74.5537 15.09661811 15035
ARICA 2
1 68796U 26088E   26212.86709037  .00003626  00000-0  23450-3 0  9997
2 68796  97.5121   1.2575 0013881 286.9338  73.0369 15.08748321 15039
WASEDA-SAT-ZERO-II
1 68797U 26088F   26212.65553832  .00005125  00000-0  32666-3 0  9990
2 68797  97.5113   1.0766 0013807 286.8389  73.1326 15.09092083 15003
MANGARO-II-Piscus
1 68798U 26088G   26212.37902469  .00003144  00000-0  20188-3 0  9999
2 68798  97.5122   0.8447 0017499 291.1750  68.7608 15.09063445 14966
IO-86
1 40931U          26199.45381863  .00000000  00000-0  77536-4 0    07
2 40931   6.0006 322.6653 0012733 338.8432 273.6875 14.79294310    03
LILIUM-4                
1 71922C 26067AC  26089.50133053 -.00014632  00000+0 -74472-3 0    04
2 71922  97.4497  49.1617 0004341   5.9603 355.7042 15.16896692    16
